548  
ASUS42 KRAH 301010  
RWRRAH  
NORTH CAROLINA WEATHER ROUNDUP  
NATIONAL WEATHER SERVICE RALEIGH NC  
600 AM EDT TUE MAY 30 2017  
 
NOTE: "FAIR" INDICATES FEW OR NO CLOUDS BELOW 12,000 FEET WITH NO  
SIGNIFICANT WEATHER AND/OR S TO VISIBILITY
.  
 
NCZ001-053-055-056-065-067-301100-  
WESTERN NORTH CAROLINA  
 
CITY SKY/WX TMP DP RH WIND PRES REMARKS
 
ASHEVILLE CLOUDY 64 59 83 N7 30.11R  
JEFFERSON MOCLDY 61 56 85 W6 30.12S  
MORGANTON FOG 65 65 100 CALM 30.10S VSB<1/4  
HICKORY CLOUDY 65 65 100 CALM 30.05S  
RUTHERFORDTON CLOUDY 67 67 100 CALM 30.07R FOG  
MOUNT AIRY CLOUDY 66 62 87 CALM 30.08R FOG  
BOONE NOT AVBL  

 
 
NCZ021-022-025-041-071-084-088-301100-  
CENTRAL NORTH CAROLINA  
 
CITY SKY/WX TMP DP RH WIND PRES REMARKS
 
CHARLOTTE CLOUDY 68 64 87 S3 30.05R  
GREENSBORO CLOUDY 66 66 100 W6 30.04R  
WINSTON-SALEM CLOUDY 67 65 93 CALM 30.05R  
RALEIGH-DURHAM LGT RAIN 68 67 96 NW3 30.04R FOG  
FORT BRAGG CLOUDY 68 67 95 SW5 30.02R  
FAYETTEVILLE CLOUDY 70 68 93 SW5 30.02R  
BURLINGTON LGT RAIN 67 66 97 S3 30.03S  
LAURINBURG CLOUDY 67 67 100 CALM 30.04R  

 
 
NCZ011-015-027-028-043-044-047-080-103-301100-  
NORTHEASTERN NORTH CAROLINA  
 
CITY SKY/WX TMP DP RH WIND PRES REMARKS
 
ROCKY MT-WILSO CLOUDY 69 69 100 CALM 30.02S  
GREENVILLE CLOUDY 70 70 100 S3 30.04R  
WASHINGTON CLOUDY 69 67 93 S5 30.03R  
ELIZABETH CITY CLOUDY 71 70 96 SW6 30.02R  
MANTEO PTCLDY 71 69 92 S8 30.02R  
CAPE HATTERAS PTCLDY 71 68 90 SE5 30.03R  

 
 
NCZ078-087-090-091-093-098-101-301100-  
SOUTHEASTERN NORTH CAROLINA  
 
CITY SKY/WX TMP DP RH WIND PRES REMARKS
 
LUMBERTON CLEAR 68 68 100 CALM 30.02R  
GOLDSBORO CLOUDY 69 69 100 S3 30.01R  
KINSTON CLOUDY 69 68 98 S5 30.03R  
KENANSVILLE CLOUDY 68 68 100 CALM 30.03R  
NEW BERN TSTM 69 69 100 S5 30.05R FOG  
CHERRY POINT NOT AVBL  
BEAUFORT CLOUDY 72 71 97 W5 30.06R  
JACKSONVILLE TSTM 70 69 97 SW6 30.03S  
WILMINGTON CLOUDY 70 69 97 E3 30.05R  

 
 
 
 
CLICK HERE TO GO TO PREVIOUS BULLETINS.

The Nexlab NC Page Main Text Page